Вернуться в каталог

STARLINK-35504

АктивенСвязьVLEO
NORAD 66325·PAYLOAD·🇺🇸 United States

Запущен Nov 6, 2025 с Cape Canaveral Space Force Station

Loading…

Ближайшие Пролёты (ближайшие 24 часа)

TLE

СвежийSource: CelesTrak SupGP

Эпоха: Sep 14, 2026, 15:51 UTC

1 66325C 25253G   26257.66090278 -.00024182  00000+0 -87608-3 0  2576
2 66325  42.9999 225.6743 0001097 266.0899 351.7625 15.27583485    10

Отслеживайте STARLINK-35504 в реальном времени с AllMySat

Download on the App Store